When you browse on this site, cookies collect data to enhance your experience and personalize the content and advertising you see.
Visit our Privacy Policy to learn more. By continuing to use the site, you agree to this use of cookies and data.

Hourly Weather Ballycastle

Today, 3 August, Monday

Time Temperature Precipitation Wind Pressure Humidity
00:00 +9°C° 0 mm 3 mps 758 mmHg 89%
01:00 +9°C° 0 mm 3 mps 758 mmHg 90%
02:00 +8°C° 0 mm 3 mps 758 mmHg 90%
03:00 +8°C° 0 mm 3 mps 758 mmHg 91%
04:00 +8°C° 0 mm 3 mps 758 mmHg 91%
05:00 +9°C° 0 mm 3 mps 758 mmHg 91%
06:00 +9°C° 0 mm 3 mps 758 mmHg 91%
07:00 +10°C° 0 mm 4 mps 758 mmHg 87%
08:00 +12°C° 0 mm 4 mps 758 mmHg 83%
09:00 +13°C° 0 mm 4 mps 759 mmHg 79%
10:00 +14°C° 0.1 mm 4 mps 759 mmHg 76%
11:00 +14°C° 0.1 mm 4 mps 758 mmHg 73%
12:00 +15°C° 0.1 mm 4 mps 758 mmHg 71%
13:00 +15°C° 0 mm 4 mps 758 mmHg 72%
14:00 +15°C° 0 mm 4 mps 759 mmHg 73%
15:00 +16°C° 0 mm 3 mps 759 mmHg 75%
16:00 +16°C° 0 mm 3 mps 758 mmHg 76%
17:00 +14°C° 0 mm 3 mps 758 mmHg 78%
18:00 +14°C° 0 mm 3 mps 758 mmHg 79%
19:00 +13°C° 0 mm 3 mps 758 mmHg 82%
20:00 +13°C° 0 mm 3 mps 758 mmHg 84%
21:00 +12°C° 0 mm 3 mps 758 mmHg 87%
22:00 +11°C° 0 mm 3 mps 758 mmHg 86%
23:00 +11°C° 0 mm 3 mps 757 mmHg 86%

Tomorrow, 4 August, Tuesday

Time Temperature Precipitation Wind Pressure Humidity
00:00 +11°C° 0 mm 4 mps 757 mmHg 86%
01:00 +11°C° 0 mm 4 mps 756 mmHg 87%
02:00 +10°C° 0 mm 5 mps 756 mmHg 88%
03:00 +10°C° 0 mm 5 mps 755 mmHg 89%
04:00 +10°C° 1.4 mm 7 mps 754 mmHg 90%
05:00 +10°C° 1.4 mm 8 mps 753 mmHg 92%
06:00 +10°C° 1.4 mm 9 mps 752 mmHg 94%
07:00 +11°C° 0.2 mm 9 mps 752 mmHg 93%
08:00 +11°C° 0.2 mm 9 mps 752 mmHg 93%
09:00 +12°C° 0.2 mm 9 mps 751 mmHg 92%
10:00 +13°C° 0.2 mm 9 mps 751 mmHg 92%
11:00 +15°C° 0.2 mm 9 mps 750 mmHg 91%
12:00 +16°C° 0.2 mm 8 mps 749 mmHg 91%
13:00 +16°C° 0.6 mm 9 mps 749 mmHg 91%
14:00 +16°C° 0.6 mm 9 mps 748 mmHg 91%
15:00 +17°C° 0.6 mm 9 mps 748 mmHg 92%
16:00 +16°C° 0.9 mm 9 mps 747 mmHg 93%
17:00 +16°C° 0.9 mm 8 mps 747 mmHg 94%
18:00 +16°C° 0.9 mm 8 mps 746 mmHg 94%
19:00 +16°C° 0.2 mm 7 mps 747 mmHg 95%
20:00 +16°C° 0.2 mm 6 mps 747 mmHg 95%
21:00 +16°C° 0.2 mm 6 mps 747 mmHg 95%
22:00 +16°C° 0.1 mm 5 mps 747 mmHg 95%
23:00 +16°C° 0.1 mm 5 mps 747 mmHg 95%

Day after tomorrow, 5 August, Wednesday

Time Temperature Precipitation Wind Pressure Humidity
00:00 +17°C° 0.1 mm 4 mps 747 mmHg 95%
01:00 +17°C° 0.1 mm 4 mps 747 mmHg 96%
02:00 +17°C° 0.1 mm 4 mps 748 mmHg 96%
03:00 +17°C° 0.1 mm 4 mps 748 mmHg 96%
04:00 +17°C° 0.1 mm 4 mps 748 mmHg 95%
05:00 +15°C° 0.1 mm 4 mps 748 mmHg 94%
06:00 +15°C° 0.1 mm 4 mps 748 mmHg 93%
07:00 +17°C° 0 mm 4 mps 748 mmHg 91%
08:00 +17°C° 0 mm 4 mps 749 mmHg 89%
09:00 +18°C° 0 mm 4 mps 749 mmHg 88%
10:00 +18°C° 0 mm 3 mps 750 mmHg 88%
11:00 +18°C° 0 mm 3 mps 750 mmHg 88%
12:00 +18°C° 0 mm 2 mps 750 mmHg 88%
13:00 +17°C° 1.4 mm 2 mps 750 mmHg 91%
14:00 +17°C° 1.4 mm 3 mps 750 mmHg 94%
15:00 +17°C° 1.4 mm 3 mps 750 mmHg 97%
16:00 +17°C° 1.3 mm 3 mps 750 mmHg 97%
17:00 +17°C° 1.3 mm 3 mps 750 mmHg 97%
18:00 +18°C° 1.3 mm 4 mps 751 mmHg 97%
19:00 +18°C° 1.2 mm 4 mps 751 mmHg 97%
20:00 +17°C° 1.2 mm 4 mps 751 mmHg 97%
21:00 +17°C° 1.2 mm 4 mps 752 mmHg 97%
22:00 +17°C° 0.2 mm 4 mps 752 mmHg 97%
23:00 +17°C° 0.2 mm 3 mps 752 mmHg 98%

6 August, Thursday

Time Temperature Precipitation Wind Pressure Humidity
00:00 +16°C° 0.2 mm 3 mps 753 mmHg 98%
01:00 +16°C° 0 mm 3 mps 753 mmHg 97%
02:00 +15°C° 0 mm 2 mps 753 mmHg 97%
03:00 +15°C° 0 mm 2 mps 754 mmHg 97%
04:00 +15°C° 0 mm 2 mps 754 mmHg 97%
05:00 +15°C° 0 mm 1 mps 754 mmHg 97%
06:00 +14°C° 0 mm 1 mps 755 mmHg 97%
07:00 +16°C° 0 mm 2 mps 755 mmHg 95%
08:00 +17°C° 0 mm 2 mps 755 mmHg 92%
09:00 +18°C° 0 mm 3 mps 756 mmHg 90%
10:00 +18°C° 0 mm 3 mps 756 mmHg 88%
11:00 +19°C° 0 mm 4 mps 756 mmHg 86%
12:00 +20°C° 0 mm 4 mps 756 mmHg 84%
13:00 +20°C° 0.1 mm 5 mps 756 mmHg 85%
14:00 +20°C° 0.1 mm 5 mps 756 mmHg 87%
15:00 +20°C° 0.1 mm 6 mps 756 mmHg 88%
16:00 +20°C° 0.1 mm 6 mps 756 mmHg 89%
17:00 +20°C° 0.1 mm 6 mps 756 mmHg 89%
18:00 +20°C° 0.1 mm 6 mps 756 mmHg 90%
19:00 +19°C° 0 mm 6 mps 756 mmHg 91%
20:00 +17°C° 0 mm 6 mps 757 mmHg 92%
21:00 +16°C° 0 mm 5 mps 757 mmHg 93%
22:00 +15°C° 0 mm 5 mps 757 mmHg 93%
23:00 +15°C° 0 mm 5 mps 757 mmHg 93%

7 August, Friday

Time Temperature Precipitation Wind Pressure Humidity
00:00 +14°C° 0 mm 5 mps 757 mmHg 94%
01:00 +14°C° 0 mm 5 mps 757 mmHg 94%
02:00 +14°C° 0 mm 5 mps 757 mmHg 94%
03:00 +14°C° 0 mm 5 mps 757 mmHg 95%
04:00 +14°C° 0 mm 5 mps 757 mmHg 95%
05:00 +14°C° 0 mm 4 mps 757 mmHg 95%
06:00 +14°C° 0 mm 4 mps 757 mmHg 95%
07:00 +15°C° 0 mm 5 mps 757 mmHg 93%
08:00 +16°C° 0 mm 5 mps 757 mmHg 90%
09:00 +17°C° 0 mm 5 mps 757 mmHg 87%
10:00 +19°C° 0 mm 5 mps 758 mmHg 85%
11:00 +20°C° 0 mm 5 mps 758 mmHg 83%
12:00 +20°C° 0 mm 5 mps 758 mmHg 81%
13:00 +21°C° 0.1 mm 5 mps 758 mmHg 81%
14:00 +21°C° 0.1 mm 4 mps 758 mmHg 81%
15:00 +21°C° 0.1 mm 4 mps 758 mmHg 80%
16:00 +21°C° 0.4 mm 4 mps 758 mmHg 83%
17:00 +21°C° 0.4 mm 4 mps 758 mmHg 87%
18:00 +20°C° 0.4 mm 3 mps 758 mmHg 90%
19:00 +19°C° 0.2 mm 3 mps 758 mmHg 92%
20:00 +17°C° 0.2 mm 3 mps 758 mmHg 94%
21:00 +16°C° 0.2 mm 3 mps 758 mmHg 96%
22:00 +16°C° 0.1 mm 3 mps 758 mmHg 96%
23:00 +14°C° 0.1 mm 4 mps 758 mmHg 96%

8 August, Saturday

Time Temperature Precipitation Wind Pressure Humidity
00:00 +14°C° 0.1 mm 5 mps 758 mmHg 97%
01:00 +13°C° 0.6 mm 5 mps 758 mmHg 97%
02:00 +13°C° 0.6 mm 5 mps 758 mmHg 97%
03:00 +13°C° 0.6 mm 5 mps 758 mmHg 97%
04:00 +13°C° 0.8 mm 5 mps 758 mmHg 96%
05:00 +12°C° 0.8 mm 5 mps 758 mmHg 96%
06:00 +12°C° 0.8 mm 5 mps 758 mmHg 95%
07:00 +13°C° 0.1 mm 5 mps 759 mmHg 94%
08:00 +13°C° 0.1 mm 6 mps 759 mmHg 92%
09:00 +13°C° 0.1 mm 6 mps 759 mmHg 91%
10:00 +14°C° 0 mm 7 mps 759 mmHg 86%
11:00 +13°C° 0 mm 8 mps 760 mmHg 82%
12:00 +15°C° 0 mm 8 mps 760 mmHg 78%
13:00 +13°C° 0.1 mm 8 mps 760 mmHg 79%
14:00 +13°C° 0.1 mm 8 mps 760 mmHg 81%
15:00 +13°C° 0.1 mm 8 mps 760 mmHg 82%
16:00 +12°C° 0.1 mm 8 mps 760 mmHg 83%
17:00 +12°C° 0.1 mm 8 mps 761 mmHg 83%
18:00 +12°C° 0.1 mm 8 mps 761 mmHg 84%
19:00 +11°C° 0 mm 7 mps 761 mmHg 85%
20:00 +10°C° 0 mm 7 mps 761 mmHg 87%
21:00 +10°C° 0 mm 7 mps 762 mmHg 89%
22:00 +10°C° 0 mm 7 mps 762 mmHg 89%
23:00 +9°C° 0 mm 7 mps 762 mmHg 89%
Show more